Jordan, MT

9:39 AM MDT on August 28, 2016 (GMT -0600)
Jordan

Weather History for KJDN - July, 2012

Change the Weather History Date:

Thursday, July 5, 2012

  Actual Average Record
Temperature  
Mean Temperature 70 °F 68 °F  
Max Temperature 83 °F 84 °F 111 °F (1936)
Min Temperature 56 °F 52 °F 40 °F (1959)
Degree Days  
Heating Degree Days 0 1  
Month to date heating degree days 0 6  
Since 1 June heating degree days 76 131  
Since 1 July heating degree days 0 6  
Cooling Degree Days 5 4  
Month to date cooling degree days 51 20  
Year to date cooling degree days 166 74  
Since 1 June cooling degree days 156 68  
Growing Degree Days 19 (Base 50)    
Moisture  
Dew Point 44 °F    
Average Humidity 55    
Maximum Humidity 84    
Minimum Humidity 26    
Precipitation  
Precipitation 0.02 in 0.08 in 0.88 in (1964)
Month to date precipitation 0.32 0.45  
Year to date precipitation 5.07 7.31  
Snow  
Snow 0.00 in - - ()
Month to date snowfall 0.0  
Since 1 June snowfall 0.0  
Since 1 July snowfall 0.0  
Snow Depth 0.00 in    
Sea Level Pressure  
Sea Level Pressure 29.94 in    
Wind  
Wind Speed 13 mph (ENE)    
Max Wind Speed 22 mph    
Max Gust Speed 28 mph    
T = Trace of Precipitation, MM = Missing Value Source: NWS Daily Summary

Daily Weather History Graph

Daily Weather History Graph

Search for Another Location

Airport or City:

Trip Planner

Search our weather history database for the weather conditions in past years. The results will help you decide how hot, cold, wet, or windy it might be!

Date:

Astronomy

Jul. 05, 2012 Rise Set
Actual Time 5:18 AM MDT 9:06 PM MDT
Civil Twilight 4:38 AM MDT 9:45 PM MDT
Nautical Twilight 3:44 AM MDT 10:39 PM MDT
Astronomical Twilight 2:26 AM MDT 11:57 PM MDT
Moon 10:09 PM MDT (7/5) 7:45 AM MDT (7/5)
Length of Visible Light 17h 06m
Length of Day
15h 47m
Waning Gibbous, 95% of the Moon is Illuminated
Jul 5
Waning Gibbous
Jul 10
Last Quarter
Jul 18
New
Jul 26
First Quarter
Aug 1
Full

Hourly Weather History & Observations

Time (MDT) Temp. Dew Point Humidity Pressure Visibility Wind Dir Wind Speed Gust Speed Precip Events Conditions
12:48 AM 59.0 °F 32.0 °F 36% 29.93 in - NNE 5.8 mph - N/A   Unknown
1:48 AM 60.1 °F 34.0 °F 38% 29.93 in - NNE 9.2 mph - N/A   Unknown
2:48 AM 59.0 °F 35.1 °F 41% 29.94 in - NNE 8.1 mph - N/A   Unknown
3:48 AM 60.1 °F 37.0 °F 42% 29.94 in - NE 8.1 mph - N/A   Unknown
4:48 AM 57.9 °F 39.0 °F 49% 29.94 in - ENE 6.9 mph - N/A   Unknown
5:48 AM 57.9 °F 41.0 °F 53% 29.95 in - NE 8.1 mph - N/A   Unknown
6:48 AM 61.0 °F 45.0 °F 56% 29.95 in - NE 13.8 mph - N/A   Unknown
7:48 AM 66.0 °F 45.0 °F 47% 29.95 in - ENE 15.0 mph 20.7 mph N/A   Unknown
8:48 AM 71.1 °F 43.0 °F 36% 29.94 in - ENE 18.4 mph 27.6 mph N/A   Unknown
9:48 AM 75.9 °F 42.1 °F 30% 29.92 in - East 16.1 mph 26.5 mph N/A   Unknown
10:48 AM 80.1 °F 42.1 °F 26% 29.91 in - East 19.6 mph 24.2 mph N/A   Unknown
11:48 AM 81.0 °F 42.1 °F 25% 29.90 in - East 15.0 mph 19.6 mph N/A   Unknown
12:48 PM 81.0 °F 43.0 °F 26% 29.90 in - East 16.1 mph - N/A   Unknown
1:48 PM 79.0 °F 43.0 °F 28% 29.91 in - East 10.4 mph - N/A   Unknown
2:48 PM 80.1 °F 43.0 °F 27% 29.92 in - NE 12.7 mph - N/A   Unknown
3:48 PM 81.0 °F 45.0 °F 28% 29.91 in - NE 16.1 mph 23.0 mph N/A   Unknown
4:48 PM 79.0 °F 45.0 °F 30% 29.92 in - NE 13.8 mph 20.7 mph N/A   Unknown
5:48 PM 78.1 °F 46.0 °F 32% 29.91 in - NE 20.7 mph 26.5 mph N/A   Unknown
6:48 PM 75.0 °F 46.9 °F 37% 29.93 in - NE 13.8 mph 26.5 mph N/A   Unknown
7:48 PM 72.0 °F 48.0 °F 43% 29.95 in - ENE 15.0 mph 21.9 mph N/A   Unknown
8:48 PM 71.1 °F 48.9 °F 45% 29.97 in - NE 16.1 mph 21.9 mph N/A   Unknown
9:48 PM 64.9 °F 54.0 °F 68% 29.99 in - East 9.2 mph - N/A   Unknown
10:48 PM 62.1 °F 57.9 °F 86% 29.98 in - ESE 6.9 mph - 0.02 in   Unknown
11:48 PM 63.0 °F 55.0 °F 75% 29.96 in - ESE 16.1 mph 25.3 mph N/A   Unknown